Skip Page Navigation
NASA JPL Caltech
NASA Logo - Jet Propulsion Laboratory + View the NASA Portal
+ Center for Near-Earth Object Studies
JPL Home Earth Solar System Stars & Galaxies Technology
JPL Solar System Dynamics
BODIES ORBITS EPHEMERIDES TOOLS PHYSICAL DATA DISCOVERY FAQ SITE MAP
JPL Small-Body Database Browser
Search: [ help ]  
35248 (1995 UR53)
Classification: Main-belt Asteroid          SPK-ID: 2035248
Ephemeris | Orbit Diagram | Orbital Elements | Mission Design | Physical Parameters | Discovery Circumstances | Close-Approach Data ]

[ show orbit diagram ]
Orbital Elements at Epoch 2459000.5 (2020-May-31.0) TDB
Reference: JPL 24 (heliocentric ecliptic J2000)
 Element Value Uncertainty (1-sigma)   Units 
e .2411893820964179 3.712e-08  
a 3.177454875647748 1.4649e-08 au
q 2.411086497551017 1.1659e-07 au
i 1.447683257370909 3.8995e-06 deg
node 305.1236115212735 0.00014883 deg
peri 71.34206463164587 0.00014902 deg
M 112.7818461907481 7.4049e-06 deg
tp 2458352.381806024790
(2018-Aug-21.88180602)
4.0686e-05 TDB
period 2068.79526902279
5.66
1.4307e-05
3.917e-08
d
yr
n .1740143190534501 1.2034e-09 deg/d
Q 3.943823253744478 1.8183e-08 au
  Orbit Determination Parameters
   # obs. used (total)      1554  
   data-arc span      10284 days (28.16 yr)  
   first obs. used      1992-03-02  
   last obs. used      2020-04-28  
   planetary ephem.      DE431  
   SB-pert. ephem.      SB431-N16  
   condition code      0  
   norm. resid. RMS      .47751  
   source      ORB  
   producer      Otto Matic  
   solution date      2020-May-20 08:04:03  

Additional Information
 Earth MOID = 1.41313 au 
 Jupiter MOID = 1.53382 au 
 T_jup = 3.154 
[ show covariance matrix ]

Ephemeris | Orbit Diagram | Orbital Elements | Mission Design | Physical Parameters | Discovery Circumstances | Close-Approach Data ]

Physical Parameter Table
Parameter Symbol Value Units Sigma Reference Notes
absolute magnitude H 13.8   n/a PDS3 (MPO 24152)  
diameter diameter 9.306 km 0.501 urn:nasa:pds:neowise_diameters_albedos::2.0[mainbelt] (http://adsabs.harvard.edu/abs/2011ApJ...741...68M)  
geometric albedo albedo 0.062   0.011 urn:nasa:pds:neowise_diameters_albedos::2.0[mainbelt] (http://adsabs.harvard.edu/abs/2011ApJ...741...68M)  

35248 (1995 UR53)          Discovered 1995-Oct-21 by Spacewatch at Kitt Peak
Reference: 20020227/Numbers.arcLast Updated: 2004-04-19

[ show close-approach data ]
Alternate Designations
 1995 UR53 = 1992 EN32 
Ephemeris | Orbit Diagram | Orbital Elements | Mission Design | Physical Parameters | Discovery Circumstances | Close-Approach Data ]
ABOUT SSD CREDITS/AWARDS PRIVACY/COPYRIGHT GLOSSARY LINKS
FirstGov 2020-Sep-18 21:44 UT
(server date/time)  
NASA Home Page
Site Manager:   Ryan S. Park
Webmaster  Alan B. Chamberlin